Home > Weather > Lowell > Past weeks

Flag for USA Past Weather in Lowell, Massachusetts, USA — Yesterday and Last 2 Weeks

Now
69 °F

Clear.


Feels Like: 69 °F
Forecast: 62 / 93 °F
Wind: No wind

Location: Hanscom Field

Current Time: Jul 24, 2016 at 10:38:15 PM

Latest Report: Jul 24, 2016 at 9:56 PM


Visibility: 10 mi

Pressure: 29.99 "Hg

Humidity: 59%

Dew Point: 54 °F

Location of LowellLocation

Past Weather in Lowell — Graph

°F

Lowell Temperature Yesterday

Maximum temperature yesterday: 95 °F (at 2:56 PM)
Minimum temperature yesterday: 65 °F (at 10:56 PM)
Average temperature yesterday: 80 °F

High & Low Weather Summary for the Past Weeks

 TemperatureHumidityPressure
High96 °F (Jul 22, 3:56 PM)96% (Jul 9, 10:56 PM)30.23 "Hg (Jul 9, 10:56 PM)
Low53 °F (Jul 20, 3:56 AM)22% (Jul 23, 3:56 PM)29.72 "Hg (Jul 23, 3:56 PM)
Average75 °F62%29.98 "Hg
* Reported Jul 9 8:56 PM — Jul 24 8:56 PM, Lowell, Weather by CustomWeather, © 2016

Note: Actual official high and low records may vary slightly from our data, if they occured in-between our weather recording intervals... More about our weather records

Advertising

Lowell Weather History for the Previous 24 Hours

Scroll right to see more
 ConditionsComfort  
Time TempWeatherWind HumidityBarometerVisibility
8:56 PM
Sun, Jul 24
77 °FSunny.3 mph47%29.97 "Hg10 mi
7:56 PM83 °FScattered clouds.6 mph34%29.96 "Hg10 mi
6:56 PM88 °FPartly sunny.N/A29%29.94 "Hg10 mi
5:56 PM89 °FPartly sunny.7 mph28%29.92 "Hg10 mi
4:56 PM90 °FPartly sunny.9 mph25%29.93 "Hg10 mi
3:56 PM89 °FScattered clouds.8 mph28%29.93 "Hg10 mi
2:56 PM88 °FScattered clouds.5 mph29%29.94 "Hg10 mi
1:56 PM87 °FSunny.8 mph33%29.95 "Hg10 mi
12:56 PM85 °FPartly sunny.8 mph37%29.95 "Hg10 mi
11:56 AM85 °FSunny.6 mph37%29.95 "Hg10 mi
10:56 AM82 °FSunny.8 mph41%29.96 "Hg10 mi
9:56 AM80 °FSunny.10 mph47%29.96 "Hg10 mi
8:56 AM77 °FSunny.8 mph52%29.96 "Hg10 mi
7:56 AM73 °FSunny.N/A62%29.96 "Hg10 mi
6:56 AM66 °FSunny.5 mph75%29.96 "Hg10 mi
5:56 AM61 °FClear.5 mph83%29.94 "Hg10 mi
4:56 AM61 °FClear.No wind83%29.93 "Hg10 mi
3:56 AM63 °FClear.5 mph78%29.93 "Hg10 mi
2:56 AM63 °FClear.No wind78%29.92 "Hg10 mi
1:56 AM65 °FClear.5 mph73%29.91 "Hg10 mi
12:56 AM67 °FClear.9 mph68%29.90 "Hg10 mi
11:56 PM
Sat, Jul 23
65 °FClear.3 mph78%29.89 "Hg10 mi
10:56 PM65 °FClear.6 mph78%29.88 "Hg10 mi
Weather by CustomWeather, © 2016

See weather overviewHow to use our weather pages